GW2041 Weather Reports


Display with metric or nautical units.
time (UTC)temp
F
wind
direction
speed
MPH
gust
MPH
rain 1hr
in
rain 24hr
in
rain mn
in
humidity
%
barometer
mb
20260510131209 67 68 2.0 4.0 0.00 0.00 0.00 52 1011.0
20260510130211 67 23 2.0 5.0 0.00 0.00 0.00 51 1011.0
20260510125206 67 68 1.0 4.0 0.00 0.00 0.00 51 1010.7
20260510124207 68 23 2.0 4.0 0.00 0.00 0.00 53 1010.7
20260510123210 68 68 2.0 0.0 0.00 0.00 0.00 54 1011.0
20260510122249 67 45 2.0 5.0 0.00 0.00 0.00 54 1010.9
20260510120810 67 90 2.0 4.0 0.00 0.00 0.00 53 1010.9
20260510115811 67 45 2.0 4.0 0.00 0.00 0.00 57 1011.0
20260510114805 66 23 1.0 4.0 0.00 0.00 0.00 57 1011.0
20260510113805 66 23 1.0 4.0 0.00 0.00 0.00 59 1011.1
20260510112811 66 45 2.0 4.0 0.00 0.00 0.00 59 1011.1
20260510111804 65 45 2.0 4.0 0.00 0.00 0.00 59 1011.3
20260510110805 66 23 2.0 4.0 0.00 0.00 0.00 61 1011.3
20260510105809 65 113 1.0 6.0 0.00 0.00 0.00 64 1011.0
20260510104805 63 45 1.0 3.0 0.00 0.00 0.00 65 1011.0
20260510103803 63 90 1.0 4.0 0.00 0.00 0.00 66 1011.4
20260510102807 63 23 1.0 4.0 0.00 0.00 0.00 67 1011.4
20260510101803 63 45 1.0 3.0 0.00 0.00 0.00 67 1011.6
20260510100802 62 248 1.0 2.0 0.00 0.00 0.00 68 1011.6
20260510095808 62 23 1.0 4.0 0.00 0.00 0.00 68 1011.4
20260510094805 62 113 1.0 4.0 0.00 0.00 0.00 70 1011.4
20260510093803 63 45 1.0 4.0 0.00 0.00 0.00 68 1011.7
20260510092808 63 68 1.0 2.0 0.00 0.00 0.00 71 1011.7
20260510092239 62 338 2.0 4.0 0.00 0.00 0.00 69 1011.6
20260510090803 64 68 2.0 4.0 0.00 0.00 0.00 71 1011.6
20260510085805 63 338 2.0 4.0 0.00 0.00 0.00 72 1011.6
20260510084804 62 68 1.0 4.0 0.00 0.00 0.00 75 1011.6
20260510083803 61 270 2.0 5.0 0.00 0.00 0.00 75 1011.5
20260510082807 61 23 1.0 3.0 0.00 0.00 0.00 74 1011.5
20260510081802 61 23 2.0 5.0 0.00 0.00 0.00 76 1011.5
20260510080800 61 45 1.0 2.0 0.00 0.00 0.00 80 1011.5
20260510075803 59 270 2.0 5.0 0.00 0.00 0.00 82 1011.7
20260510074759 58 45 1.0 4.0 0.00 0.00 0.00 85 1011.7
20260510073800 55 23 2.0 5.0 0.00 0.00 0.00 86 1011.8
20260510072804 54 23 1.0 5.0 0.00 0.00 0.00 88 1011.8
20260510071800 53 23 1.0 3.0 0.00 0.00 0.00 88 1011.9
20260510070802 52 45 0.0 2.0 0.00 0.00 0.00 89 1011.9
20260510065805 49 225 0.0 0.0 0.00 0.00 0.00 91 1011.8
20260510065328 51 23 0.0 2.0 0.00 0.00 0.00 90 1011.8
20260510064805 50 68 0.0 2.0 0.00 0.00 0.00 90 1011.8
20260510063332 49 225 0.0 0.0 0.00 0.00 0.00 91 1012.0
20260510062325 48 68 0.0 0.0 0.00 0.00 0.00 91 1012.0
20260510061807 48 293 0.0 0.0 0.00 0.00 0.00 91 1012.0
20260510060326 47 68 0.0 2.0 0.00 0.00 0.00 91 1012.0
20260510055323 47 338 0.0 2.0 0.00 0.00 0.00 91 1011.8
20260510054324 47 270 0.0 3.0 0.00 0.00 0.00 91 1011.8
20260510053804 46 23 0.0 2.0 0.00 0.00 0.00 91 1011.9
20260510052807 45 270 0.0 0.0 0.00 0.00 0.00 90 1011.9
20260510051320 45 270 0.0 0.0 0.00 0.00 0.00 90 1011.8
20260510050324 45 338 0.0 0.0 0.00 0.00 0.00 90 1011.8
20260510045320 45 45 0.0 0.0 0.00 0.00 0.00 89 1011.9
20260510044321 44 270 0.0 0.0 0.00 0.00 0.00 89 1011.9
20260510043804 44 338 0.0 0.0 0.00 0.00 0.00 89 1011.6
20260510042810 44 68 0.0 0.0 0.00 0.00 0.00 89 1011.6
20260510041322 43 23 0.0 0.0 0.00 0.00 0.00 88 1011.8
20260510040324 43 270 0.0 0.0 0.00 0.00 0.00 88 1011.8
20260510035318 43 23 0.0 0.0 0.00 0.00 0.00 88 1011.8
20260510034318 43 270 0.0 0.0 0.00 0.00 0.00 88 1011.8
20260510033324 43 270 0.0 1.0 0.00 0.00 0.00 88 1012.0
20260510032325 44 270 0.0 0.0 0.00 0.00 0.00 87 1012.0
20260510031318 43 23 0.0 0.0 0.00 0.00 0.00 87 1011.9
20260510030323 44 23 0.0 0.0 0.00 0.00 0.00 87 1011.9
20260510025318 44 23 0.0 0.0 0.00 0.00 0.00 87 1012.0
20260510024317 44 23 0.0 0.0 0.00 0.00 0.00 86 1012.0
20260510023323 44 23 0.0 0.0 0.00 0.00 0.00 86 1012.3
20260510022751 44 23 0.0 0.0 0.00 0.00 0.00 86 1012.3
20260510021316 44 23 0.0 0.0 0.00 0.00 0.00 86 1012.4
20260510020324 45 23 0.0 0.0 0.00 0.00 0.00 85 1012.4
20260510015755 45 23 0.0 0.0 0.00 0.00 0.00 85 1012.4
20260510014317 45 23 0.0 0.0 0.00 0.00 0.00 85 1012.4
20260510013320 45 23 0.0 0.0 0.00 0.00 0.00 84 1012.6
20260510012317 46 23 0.0 0.0 0.00 0.00 0.00 84 1012.6
20260510011810 46 23 0.0 0.0 0.00 0.00 0.00 84 1012.3
20260510010321 46 23 0.0 0.0 0.00 0.00 0.00 83 1012.3
20260510005755 46 23 0.0 0.0 0.00 0.00 0.00 83 1012.5
20260510004750 46 23 0.0 0.0 0.00 0.00 0.00 82 1012.5
20260510003320 47 23 0.0 0.0 0.00 0.00 0.00 82 1012.8
20260510002308 47 23 0.0 0.0 0.00 0.00 0.00 81 1012.8
20260510001304 47 23 0.0 0.0 0.00 0.00 0.00 81 1012.9
20260510000305 47 23 0.0 0.0 0.00 0.00 0.00 80 1012.9
20260509235307 48 23 0.0 0.0 0.00 0.00 0.00 79 1013.1
20260509234305 48 23 0.0 0.0 0.00 0.00 0.00 79 1013.1
20260509233304 48 23 0.0 0.0 0.00 0.00 0.00 78 1013.3
20260509232306 48 23 0.0 0.0 0.00 0.00 0.00 78 1013.3
20260509231756 49 23 0.0 0.0 0.00 0.00 0.00 77 1013.5
20260509230309 49 23 0.0 0.0 0.00 0.00 0.00 77 1013.5
20260509225309 50 23 0.0 0.0 0.00 0.00 0.00 76 1013.8
20260509224305 50 23 0.0 0.0 0.00 0.00 0.00 75 1013.8
20260509223307 50 23 0.0 0.0 0.00 0.00 0.00 74 1014.0
20260509222307 51 23 0.0 0.0 0.00 0.00 0.00 73 1014.0
20260509221305 51 23 0.0 0.0 0.00 0.00 0.00 72 1013.8
20260509214759 53 23 0.0 0.0 0.00 0.00 0.00 69 1013.7
20260509213306 54 23 0.0 0.0 0.00 0.00 0.00 68 1013.9
20260509212305 54 23 0.0 0.0 0.00 0.00 0.00 67 1013.9
20260509211304 55 23 0.0 0.0 0.00 0.00 0.00 66 1014.1
20260509205306 56 23 0.0 0.0 0.00 0.00 0.00 63 1014.5
20260509204304 56 23 0.0 0.0 0.00 0.00 0.00 63 1014.5
20260509203307 57 23 0.0 0.0 0.00 0.00 0.00 61 1014.5
20260509202306 57 23 0.0 0.0 0.00 0.00 0.00 60 1014.5
20260509201302 58 23 0.0 0.0 0.00 0.00 0.00 59 1013.9
20260509200303 58 23 0.0 0.0 0.00 0.00 0.00 58 1013.9
20260509195301 58 23 0.0 0.0 0.00 0.00 0.00 57 1014.5
20260509194300 58 23 0.0 0.0 0.00 0.00 0.00 57 1014.5
20260509193303 58 23 0.0 0.0 0.00 0.00 0.00 56 1014.3
20260509192300 59 23 0.0 0.0 0.00 0.00 0.00 54 1014.3
20260509191302 60 23 0.0 0.0 0.00 0.00 0.00 53 1014.4
20260509190303 61 23 0.0 0.0 0.00 0.00 0.00 51 1014.4
20260509185258 62 23 0.0 1.0 0.00 0.00 0.00 50 1014.6
20260509183300 64 23 0.0 0.0 0.00 0.00 0.00 46 1014.8
20260509182211 66 315 1.0 4.0 0.00 0.00 0.00 44 1014.8
20260509181212 67 23 2.0 2.0 0.00 0.00 0.00 42 1014.9
20260509180213 69 248 2.0 4.0 0.00 0.00 0.00 40 1014.9
20260509175652 70 248 2.0 4.0 0.00 0.00 0.00 40 1015.0
20260509174214 72 180 3.0 6.0 0.00 0.00 0.00 39 1015.0
20260509173211 73 248 2.0 4.0 0.00 0.00 0.00 39 1014.8
20260509172210 73 270 1.0 4.0 0.00 0.00 0.00 40 1014.8
20260509171211 74 338 1.0 3.0 0.00 0.00 0.00 40 1015.3
20260509170211 74 248 1.0 4.0 0.00 0.00 0.00 40 1015.3
20260509165211 74 180 2.0 3.0 0.00 0.00 0.00 41 1014.6
20260509164210 71 248 1.0 2.0 0.00 0.00 0.00 41 1014.6
20260509163212 71 135 1.0 3.0 0.00 0.00 0.00 42 1014.5
20260509162207 70 270 1.0 3.0 0.00 0.00 0.00 43 1014.5
20260509161207 70 135 2.0 3.0 0.00 0.00 0.00 41 1014.8
20260509160209 71 248 2.0 3.0 0.00 0.00 0.00 40 1014.8
20260509155642 75 203 2.0 5.0 0.00 0.00 0.00 38 1014.8
20260509154207 76 270 3.0 6.0 0.00 0.00 0.00 40 1014.8
20260509153206 74 248 2.0 5.0 0.00 0.00 0.00 42 1014.4
20260509152637 71 225 3.0 4.0 0.00 0.00 0.00 43 1014.4
20260509151159 71 158 3.0 6.0 0.00 0.00 0.00 41 1014.8
20260509150205 71 225 2.0 4.0 0.00 0.00 0.00 41 1014.8
20260509145201 71 135 3.0 4.0 0.00 0.00 0.00 41 1014.6
20260509144647 71 135 3.0 5.0 0.00 0.00 0.00 41 1014.6
20260509143205 73 203 2.0 6.0 0.00 0.00 0.00 40 1014.5
20260509142200 73 158 3.0 5.0 0.00 0.00 0.00 41 1014.5
20260509141202 72 270 4.0 7.0 0.00 0.00 0.00 45 1014.4
20260509140204 70 248 3.0 7.0 0.00 0.00 0.00 47 1014.4
20260509135158 67 248 1.0 4.0 0.00 0.00 0.00 49 1014.7
20260509134636 67 315 1.0 3.0 0.00 0.00 0.00 48 1014.7
20260509133201 68 203 2.0 8.0 0.00 0.00 0.00 47 1014.8
20260509132158 70 180 2.0 4.0 0.00 0.00 0.00 46 1014.8